| time (UTC) | temp F | wind direction | speed knots | gust knots | rain 1hr in | rain 24hr in | rain mn in | humidity % | barometer mb |
| 20260510082150 | 56 | 267 | 0.0 | 0.0 | 0.00 | 0.00 | 0.00 | 85 | 1024.5 |
| 20260510081649 | 56 | 267 | 0.0 | 0.9 | 0.00 | 0.00 | 0.00 | 85 | 1024.5 |
| 20260510081144 | 56 | 267 | 0.0 | 0.9 | 0.00 | 0.00 | 0.00 | 84 | 1024.6 |
| 20260510080642 | 57 | 267 | 0.0 | 0.0 | 0.00 | 0.00 | 0.00 | 84 | 1024.7 |
| 20260510080142 | 57 | 269 | 0.0 | 0.0 | 0.00 | 0.00 | 0.00 | 84 | 1024.6 |
| 20260510075638 | 57 | 268 | 0.0 | 0.0 | 0.00 | 0.00 | 0.00 | 83 | 1024.6 |
| 20260510075139 | 58 | 267 | 0.0 | 0.9 | 0.00 | 0.00 | 0.00 | 83 | 1024.6 |
| 20260510074633 | 58 | 267 | 0.0 | 0.9 | 0.00 | 0.00 | 0.00 | 83 | 1024.6 |
| 20260510074132 | 58 | 267 | 0.0 | 1.7 | 0.00 | 0.00 | 0.00 | 83 | 1024.6 |
| 20260510073632 | 58 | 267 | 0.9 | 1.7 | 0.00 | 0.00 | 0.00 | 83 | 1024.6 |
| 20260510073132 | 58 | 267 | 0.0 | 1.7 | 0.00 | 0.00 | 0.00 | 82 | 1024.5 |
| 20260510072632 | 58 | 263 | 0.0 | 1.7 | 0.00 | 0.00 | 0.00 | 82 | 1024.6 |
| 20260510072132 | 58 | 263 | 0.0 | 2.6 | 0.00 | 0.00 | 0.00 | 82 | 1024.6 |
| 20260510071628 | 58 | 263 | 0.0 | 2.6 | 0.00 | 0.00 | 0.00 | 82 | 1024.6 |
| 20260510071128 | 59 | 341 | 0.0 | 2.6 | 0.00 | 0.00 | 0.00 | 81 | 1024.5 |
| 20260510070626 | 59 | 346 | 0.0 | 2.6 | 0.00 | 0.00 | 0.00 | 81 | 1024.4 |
| 20260510070126 | 59 | 325 | 0.0 | 1.7 | 0.00 | 0.00 | 0.00 | 81 | 1024.5 |
| 20260510065627 | 59 | 288 | 0.0 | 0.9 | 0.00 | 0.00 | 0.00 | 81 | 1024.6 |
| 20260510065126 | 58 | 261 | 0.0 | 0.9 | 0.00 | 0.00 | 0.00 | 81 | 1024.5 |
| 20260510064621 | 59 | 262 | 0.0 | 0.9 | 0.00 | 0.00 | 0.00 | 80 | 1024.4 |
| 20260510064121 | 59 | 261 | 0.0 | 0.9 | 0.00 | 0.00 | 0.00 | 80 | 1024.4 |
| 20260510063620 | 59 | 261 | 0.0 | 0.9 | 0.00 | 0.00 | 0.00 | 80 | 1024.4 |
| 20260510063121 | 59 | 261 | 0.0 | 0.9 | 0.00 | 0.00 | 0.00 | 79 | 1024.3 |
| 20260510062618 | 60 | 261 | 0.0 | 0.0 | 0.00 | 0.00 | 0.00 | 78 | 1024.3 |
| 20260510062119 | 60 | 261 | 0.0 | 0.0 | 0.00 | 0.00 | 0.00 | 77 | 1024.2 |
| 20260510061614 | 61 | 262 | 0.0 | 0.0 | 0.00 | 0.00 | 0.00 | 76 | 1024.3 |
| 20260510061110 | 61 | 262 | 0.0 | 0.0 | 0.00 | 0.00 | 0.00 | 75 | 1024.2 |
| 20260510060610 | 62 | 261 | 0.0 | 0.0 | 0.00 | 0.00 | 0.00 | 75 | 1024.2 |
| 20260510060110 | 62 | 261 | 0.0 | 0.0 | 0.00 | 0.00 | 0.00 | 74 | 1024.2 |
| 20260510055610 | 62 | 261 | 0.0 | 0.0 | 0.00 | 0.00 | 0.00 | 74 | 1024.2 |
| 20260510055110 | 63 | 261 | 0.0 | 0.0 | 0.00 | 0.00 | 0.00 | 73 | 1024.0 |
| 20260510054609 | 63 | 261 | 0.0 | 0.9 | 0.00 | 0.00 | 0.00 | 73 | 1024.1 |
| 20260510054108 | 64 | 261 | 0.0 | 1.7 | 0.00 | 0.00 | 0.00 | 73 | 1024.1 |
| 20260510053610 | 64 | 261 | 0.9 | 5.2 | 0.00 | 0.00 | 0.00 | 72 | 1024.1 |
| 20260510053106 | 64 | 261 | 1.7 | 5.2 | 0.00 | 0.00 | 0.00 | 72 | 1024.1 |
| 20260510052604 | 64 | 302 | 2.6 | 5.2 | 0.00 | 0.00 | 0.00 | 72 | 1024.1 |
| 20260510052105 | 65 | 342 | 2.6 | 5.2 | 0.00 | 0.00 | 0.00 | 71 | 1024.0 |
| 20260510051600 | 65 | 298 | 2.6 | 7.0 | 0.00 | 0.00 | 0.00 | 71 | 1024.0 |
| 20260510051100 | 65 | 321 | 2.6 | 7.0 | 0.00 | 0.00 | 0.00 | 70 | 1024.0 |
| 20260510050602 | 65 | 340 | 2.6 | 6.1 | 0.00 | 0.00 | 0.00 | 69 | 1023.9 |
| 20260510050100 | 65 | 17 | 0.9 | 4.3 | 0.00 | 0.00 | 0.00 | 69 | 1023.8 |
| 20260510045558 | 66 | 315 | 0.9 | 2.6 | 0.00 | 0.00 | 0.00 | 68 | 1023.9 |
| 20260510045058 | 66 | 279 | 0.9 | 2.6 | 0.00 | 0.00 | 0.00 | 68 | 1023.9 |
| 20260510044556 | 66 | 257 | 0.9 | 5.2 | 0.00 | 0.00 | 0.00 | 68 | 1023.8 |
| 20260510044056 | 67 | 269 | 0.9 | 5.2 | 0.00 | 0.00 | 0.00 | 67 | 1023.7 |
| 20260510043557 | 67 | 267 | 0.9 | 3.5 | 0.00 | 0.00 | 0.00 | 67 | 1023.7 |
| 20260510043054 | 67 | 267 | 1.7 | 3.5 | 0.00 | 0.00 | 0.00 | 66 | 1023.6 |
| 20260510042552 | 67 | 265 | 1.7 | 4.3 | 0.00 | 0.00 | 0.00 | 65 | 1023.6 |
| 20260510042052 | 68 | 261 | 1.7 | 5.2 | 0.00 | 0.00 | 0.00 | 65 | 1023.6 |
| 20260510041547 | 68 | 305 | 2.6 | 5.2 | 0.00 | 0.00 | 0.00 | 65 | 1023.6 |
| 20260510041046 | 68 | 308 | 2.6 | 5.2 | 0.00 | 0.00 | 0.00 | 64 | 1023.5 |
| 20260510040546 | 68 | 302 | 1.7 | 5.2 | 0.00 | 0.00 | 0.00 | 64 | 1023.5 |
| 20260510040046 | 69 | 288 | 1.7 | 6.1 | 0.00 | 0.00 | 0.00 | 63 | 1023.3 |
| 20260510035551 | 69 | 271 | 1.7 | 6.1 | 0.00 | 0.00 | 0.00 | 63 | 1023.2 |
| 20260510035046 | 70 | 285 | 1.7 | 2.6 | 0.00 | 0.00 | 0.00 | 62 | 1023.2 |
| 20260510034544 | 70 | 296 | 0.9 | 2.6 | 0.00 | 0.00 | 0.00 | 61 | 1023.2 |
| 20260510034044 | 71 | 291 | 0.9 | 2.6 | 0.00 | 0.00 | 0.00 | 60 | 1023.1 |
| 20260510033545 | 71 | 250 | 1.7 | 6.1 | 0.00 | 0.00 | 0.00 | 59 | 1023.0 |
| 20260510033042 | 72 | 257 | 2.6 | 6.1 | 0.00 | 0.00 | 0.00 | 58 | 1023.0 |
| 20260510032540 | 72 | 288 | 2.6 | 6.1 | 0.00 | 0.00 | 0.00 | 57 | 1023.0 |
| 20260510032040 | 73 | 279 | 2.6 | 6.1 | 0.00 | 0.00 | 0.00 | 55 | 1022.9 |
| 20260510031538 | 74 | 298 | 0.9 | 3.5 | 0.00 | 0.00 | 0.00 | 50 | 1022.9 |
| 20260510031036 | 74 | 275 | 0.0 | 0.0 | 0.00 | 0.00 | 0.00 | 48 | 1022.9 |
| 20260510030534 | 75 | 275 | 0.0 | 1.7 | 0.00 | 0.00 | 0.00 | 48 | 1022.9 |
| 20260510030035 | 76 | 275 | 0.0 | 1.7 | 0.00 | 0.00 | 0.00 | 47 | 1022.7 |
| 20260510025534 | 76 | 275 | 0.0 | 0.9 | 0.00 | 0.00 | 0.00 | 47 | 1022.8 |
| 20260510025035 | 77 | 275 | 0.0 | 0.9 | 0.00 | 0.00 | 0.00 | 48 | 1022.7 |
| 20260510024532 | 77 | 275 | 0.0 | 1.7 | 0.00 | 0.00 | 0.00 | 46 | 1022.7 |
| 20260510024029 | 77 | 275 | 0.0 | 2.6 | 0.00 | 0.00 | 0.00 | 46 | 1022.7 |
| 20260510023530 | 78 | 275 | 0.9 | 2.6 | 0.00 | 0.00 | 0.00 | 46 | 1022.8 |
| 20260510023031 | 78 | 275 | 0.9 | 2.6 | 0.00 | 0.00 | 0.00 | 44 | 1022.8 |
| 20260510022528 | 78 | 275 | 0.9 | 2.6 | 0.00 | 0.00 | 0.00 | 44 | 1022.8 |
| 20260510022027 | 78 | 336 | 0.0 | 2.6 | 0.00 | 0.00 | 0.00 | 43 | 1022.8 |
| 20260510021522 | 78 | 83 | 0.0 | 2.6 | 0.00 | 0.00 | 0.00 | 45 | 1022.9 |
| 20260510021021 | 79 | 81 | 0.9 | 2.6 | 0.00 | 0.00 | 0.00 | 45 | 1022.7 |
| 20260510020517 | 79 | 9 | 0.9 | 3.5 | 0.00 | 0.00 | 0.00 | 44 | 1022.7 |
| 20260510020015 | 79 | 42 | 0.9 | 3.5 | 0.00 | 0.00 | 0.00 | 43 | 1022.8 |
| 20260510015517 | 79 | 82 | 0.0 | 2.6 | 0.00 | 0.00 | 0.00 | 43 | 1022.8 |
| 20260510015009 | 79 | 35 | 0.9 | 3.5 | 0.00 | 0.00 | 0.00 | 42 | 1022.8 |
| 20260510014509 | 79 | 37 | 0.9 | 3.5 | 0.00 | 0.00 | 0.00 | 41 | 1022.8 |
| 20260510014010 | 79 | 28 | 0.9 | 3.5 | 0.00 | 0.00 | 0.00 | 39 | 1022.9 |
| 20260510013514 | 80 | 5 | 0.9 | 4.3 | 0.00 | 0.00 | 0.00 | 41 | 1022.9 |
| 20260510013010 | 80 | 21 | 0.9 | 4.3 | 0.00 | 0.00 | 0.00 | 40 | 1023.1 |
| 20260510012511 | 80 | 311 | 1.7 | 3.5 | 0.00 | 0.00 | 0.00 | 38 | 1023.1 |
| 20260510012005 | 80 | 308 | 1.7 | 3.5 | 0.00 | 0.00 | 0.00 | 39 | 1023.0 |
| 20260510011510 | 80 | 325 | 0.9 | 4.3 | 0.00 | 0.00 | 0.00 | 39 | 1023.0 |
| 20260510011004 | 80 | 306 | 1.7 | 6.1 | 0.00 | 0.00 | 0.00 | 41 | 1023.1 |
| 20260510010504 | 80 | 38 | 0.9 | 6.1 | 0.00 | 0.00 | 0.00 | 41 | 1023.1 |
| 20260510010004 | 80 | 24 | 0.9 | 5.2 | 0.00 | 0.00 | 0.00 | 42 | 1023.2 |
| 20260510005505 | 80 | 286 | 0.9 | 5.2 | 0.00 | 0.00 | 0.00 | 40 | 1023.1 |
| 20260510004958 | 80 | 86 | 0.9 | 7.0 | 0.00 | 0.00 | 0.00 | 40 | 1023.3 |
| 20260510004457 | 80 | 42 | 1.7 | 7.0 | 0.00 | 0.00 | 0.00 | 40 | 1023.3 |
| 20260510003958 | 80 | 60 | 1.7 | 5.2 | 0.00 | 0.00 | 0.00 | 41 | 1023.3 |
| 20260510003458 | 80 | 24 | 0.9 | 4.3 | 0.00 | 0.00 | 0.00 | 40 | 1023.3 |
| 20260510002958 | 80 | 294 | 0.9 | 4.3 | 0.00 | 0.00 | 0.00 | 41 | 1023.4 |
| 20260510002458 | 80 | 40 | 0.9 | 3.5 | 0.00 | 0.00 | 0.00 | 40 | 1023.4 |
| 20260510001955 | 81 | 279 | 0.9 | 3.5 | 0.00 | 0.00 | 0.00 | 41 | 1023.5 |
| 20260510001454 | 81 | 298 | 1.7 | 6.1 | 0.00 | 0.00 | 0.00 | 41 | 1023.5 |
| 20260510000955 | 81 | 291 | 1.7 | 6.1 | 0.00 | 0.00 | 0.00 | 42 | 1023.5 |
| 20260510000455 | 81 | 0 | 1.7 | 6.1 | 0.00 | 0.00 | 0.00 | 41 | 1023.6 |
| 20260509235952 | 81 | 286 | 1.7 | 6.1 | 0.00 | 0.00 | 0.00 | 42 | 1023.6 |
| 20260509235453 | 81 | 11 | 1.7 | 4.3 | 0.00 | 0.00 | 0.00 | 43 | 1023.7 |
| 20260509234947 | 80 | 78 | 1.7 | 7.0 | 0.00 | 0.00 | 0.00 | 45 | 1023.7 |
| 20260509234445 | 80 | 276 | 1.7 | 7.0 | 0.00 | 0.00 | 0.00 | 44 | 1023.7 |
| 20260509233946 | 80 | 44 | 0.9 | 4.3 | 0.00 | 0.00 | 0.00 | 48 | 1023.8 |
| 20260509233444 | 80 | 13 | 2.6 | 7.0 | 0.00 | 0.00 | 0.00 | 41 | 1023.9 |
| 20260509232944 | 80 | 37 | 2.6 | 7.0 | 0.00 | 0.00 | 0.00 | 43 | 1023.8 |
| 20260509232445 | 80 | 267 | 1.7 | 4.3 | 0.00 | 0.00 | 0.00 | 44 | 1023.9 |
| 20260509231945 | 80 | 0 | 1.7 | 4.3 | 0.00 | 0.00 | 0.00 | 43 | 1024.0 |
| 20260509231444 | 80 | 301 | 1.7 | 4.3 | 0.00 | 0.00 | 0.00 | 44 | 1024.1 |
| 20260509230944 | 80 | 66 | 1.7 | 8.7 | 0.00 | 0.00 | 0.00 | 46 | 1024.1 |
| 20260509230444 | 80 | 31 | 2.6 | 8.7 | 0.00 | 0.00 | 0.00 | 48 | 1024.1 |
| 20260509225943 | 80 | 9 | 1.7 | 5.2 | 0.00 | 0.00 | 0.00 | 48 | 1024.3 |
| 20260509225442 | 79 | 328 | 1.7 | 5.2 | 0.00 | 0.00 | 0.00 | 48 | 1024.3 |
| 20260509224942 | 79 | 77 | 2.6 | 7.8 | 0.00 | 0.00 | 0.00 | 47 | 1024.4 |
| 20260509224443 | 80 | 5 | 2.6 | 7.8 | 0.00 | 0.00 | 0.00 | 43 | 1024.5 |
| 20260509223939 | 79 | 51 | 1.7 | 7.0 | 0.00 | 0.00 | 0.00 | 47 | 1024.4 |
| 20260509223440 | 79 | 46 | 1.7 | 7.0 | 0.00 | 0.00 | 0.00 | 50 | 1024.5 |
| 20260509222940 | 79 | 54 | 2.6 | 5.2 | 0.00 | 0.00 | 0.00 | 49 | 1024.7 |
| 20260509222439 | 78 | 5 | 2.6 | 7.8 | 0.00 | 0.00 | 0.00 | 50 | 1024.8 |
| 20260509221940 | 78 | 27 | 2.6 | 7.8 | 0.00 | 0.00 | 0.00 | 50 | 1024.9 |
| 20260509221440 | 78 | 338 | 2.6 | 7.8 | 0.00 | 0.00 | 0.00 | 49 | 1025.0 |
| 20260509220940 | 78 | 335 | 3.5 | 8.7 | 0.00 | 0.00 | 0.00 | 51 | 1025.0 |
| 20260509220436 | 78 | 279 | 3.5 | 8.7 | 0.00 | 0.00 | 0.00 | 50 | 1025.2 |
| 20260509215937 | 77 | 24 | 2.6 | 7.8 | 0.00 | 0.00 | 0.00 | 52 | 1025.2 |
| 20260509215436 | 77 | 281 | 2.6 | 7.0 | 0.00 | 0.00 | 0.00 | 50 | 1025.4 |
| 20260509214935 | 78 | 221 | 3.5 | 8.7 | 0.00 | 0.00 | 0.00 | 53 | 1025.5 |
| 20260509214437 | 78 | 338 | 2.6 | 8.7 | 0.00 | 0.00 | 0.00 | 53 | 1025.5 |
| 20260509213931 | 77 | 41 | 2.6 | 7.0 | 0.00 | 0.00 | 0.00 | 53 | 1025.5 |
| 20260509213433 | 77 | 311 | 2.6 | 7.8 | 0.00 | 0.00 | 0.00 | 54 | 1025.6 |
| 20260509212932 | 77 | 5 | 3.5 | 7.8 | 0.00 | 0.00 | 0.00 | 54 | 1025.6 |
| 20260509212431 | 76 | 61 | 2.6 | 7.0 | 0.00 | 0.00 | 0.00 | 56 | 1025.7 |
| 20260509211931 | 76 | 265 | 2.6 | 7.8 | 0.00 | 0.00 | 0.00 | 58 | 1025.8 |
| 20260509211432 | 76 | 311 | 2.6 | 7.8 | 0.00 | 0.00 | 0.00 | 57 | 1025.7 |
| 20260509210928 | 75 | 43 | 2.6 | 7.8 | 0.00 | 0.00 | 0.00 | 59 | 1025.8 |
| 20260509210427 | 75 | 20 | 2.6 | 7.8 | 0.00 | 0.00 | 0.00 | 58 | 1025.8 |
| 20260509205928 | 75 | 342 | 2.6 | 7.8 | 0.00 | 0.00 | 0.00 | 59 | 1025.9 |
| 20260509205427 | 75 | 319 | 2.6 | 7.8 | 0.00 | 0.00 | 0.00 | 60 | 1025.9 |
| 20260509204928 | 74 | 321 | 1.7 | 7.0 | 0.00 | 0.00 | 0.00 | 59 | 1026.0 |
| 20260509204427 | 74 | 338 | 2.6 | 7.0 | 0.00 | 0.00 | 0.00 | 62 | 1025.9 |
| 20260509203933 | 73 | 255 | 2.6 | 5.2 | 0.00 | 0.00 | 0.00 | 60 | 1026.0 |
| 20260509203424 | 73 | 292 | 1.7 | 7.0 | 0.00 | 0.00 | 0.00 | 62 | 1026.2 |
| 20260509202923 | 73 | 0 | 2.6 | 7.0 | 0.00 | 0.00 | 0.00 | 62 | 1026.3 |
| 20260509202421 | 73 | 5 | 2.6 | 7.0 | 0.00 | 0.00 | 0.00 | 60 | 1026.3 |
| 20260509201921 | 73 | 265 | 2.6 | 7.0 | 0.00 | 0.00 | 0.00 | 62 | 1026.4 |
| 20260509201421 | 73 | 316 | 1.7 | 7.0 | 0.00 | 0.00 | 0.00 | 63 | 1026.6 |
| 20260509200921 | 73 | 345 | 2.6 | 7.8 | 0.00 | 0.00 | 0.00 | 60 | 1026.6 |
| 20260509200417 | 72 | 355 | 2.6 | 7.8 | 0.00 | 0.00 | 0.00 | 59 | 1026.7 |
| 20260509195916 | 72 | 34 | 1.7 | 7.0 | 0.00 | 0.00 | 0.00 | 60 | 1026.7 |
| 20260509195417 | 71 | 99 | 1.7 | 7.8 | 0.00 | 0.00 | 0.00 | 60 | 1027.0 |
| 20260509194915 | 71 | 277 | 2.6 | 7.8 | 0.00 | 0.00 | 0.00 | 62 | 1027.0 |
| 20260509194413 | 71 | 274 | 2.6 | 8.7 | 0.00 | 0.00 | 0.00 | 62 | 1027.0 |
| 20260509193913 | 71 | 31 | 2.6 | 8.7 | 0.00 | 0.00 | 0.00 | 62 | 1027.0 |
| 20260509193408 | 71 | 56 | 2.6 | 7.0 | 0.00 | 0.00 | 0.00 | 64 | 1027.2 |
| 20260509192908 | 71 | 0 | 2.6 | 5.2 | 0.00 | 0.00 | 0.00 | 66 | 1027.1 |
| 20260509192413 | 70 | 0 | 2.6 | 7.0 | 0.00 | 0.00 | 0.00 | 63 | 1027.1 |
| 20260509191911 | 70 | 0 | 2.6 | 7.8 | 0.00 | 0.00 | 0.00 | 66 | 1027.2 |
| 20260509191407 | 70 | 5 | 2.6 | 7.8 | 0.00 | 0.00 | 0.00 | 65 | 1027.3 |
| 20260509190907 | 70 | 27 | 2.6 | 7.0 | 0.00 | 0.00 | 0.00 | 66 | 1027.3 |
| 20260509190401 | 70 | 351 | 3.5 | 7.0 | 0.00 | 0.00 | 0.00 | 68 | 1027.3 |
| 20260509185901 | 70 | 26 | 2.6 | 7.0 | 0.00 | 0.00 | 0.00 | 67 | 1027.5 |
| 20260509185401 | 69 | 317 | 2.6 | 6.1 | 0.00 | 0.00 | 0.00 | 67 | 1027.4 |
| 20260509184901 | 69 | 351 | 2.6 | 6.1 | 0.00 | 0.00 | 0.00 | 67 | 1027.4 |
| 20260509184401 | 68 | 347 | 2.6 | 7.8 | 0.00 | 0.00 | 0.00 | 68 | 1027.6 |
| 20260509183902 | 68 | 0 | 2.6 | 7.8 | 0.00 | 0.00 | 0.00 | 68 | 1027.7 |
| 20260509183358 | 68 | 0 | 3.5 | 9.6 | 0.00 | 0.00 | 0.00 | 67 | 1027.8 |
| 20260509182857 | 67 | 23 | 2.6 | 9.6 | 0.00 | 0.00 | 0.00 | 69 | 1027.8 |
| 20260509182355 | 67 | 5 | 2.6 | 7.0 | 0.00 | 0.00 | 0.00 | 71 | 1027.9 |
| 20260509181855 | 67 | 83 | 3.5 | 7.8 | 0.00 | 0.00 | 0.00 | 69 | 1027.8 |
| 20260509181355 | 67 | 303 | 2.6 | 7.8 | 0.00 | 0.00 | 0.00 | 71 | 1027.9 |
| 20260509180856 | 66 | 289 | 3.5 | 7.8 | 0.00 | 0.00 | 0.00 | 72 | 1027.9 |
| 20260509180353 | 66 | 324 | 3.5 | 7.8 | 0.00 | 0.00 | 0.00 | 72 | 1027.9 |
| 20260509175851 | 66 | 231 | 2.6 | 7.0 | 0.00 | 0.00 | 0.00 | 72 | 1027.9 |
| 20260509175352 | 65 | 333 | 2.6 | 7.0 | 0.00 | 0.00 | 0.00 | 74 | 1027.9 |
| 20260509174853 | 65 | 325 | 2.6 | 7.8 | 0.00 | 0.00 | 0.00 | 74 | 1027.9 |
| 20260509174349 | 65 | 288 | 2.6 | 7.8 | 0.00 | 0.00 | 0.00 | 73 | 1027.8 |
| 20260509173850 | 65 | 0 | 2.6 | 7.8 | 0.00 | 0.00 | 0.00 | 74 | 1028.0 |
| 20260509173343 | 64 | 52 | 1.7 | 5.2 | 0.00 | 0.00 | 0.00 | 74 | 1028.0 |
| 20260509172843 | 64 | 252 | 2.6 | 5.2 | 0.00 | 0.00 | 0.00 | 75 | 1028.0 |
| 20260509172343 | 64 | 76 | 2.6 | 5.2 | 0.00 | 0.00 | 0.00 | 75 | 1028.1 |
| 20260509171843 | 63 | 69 | 2.6 | 5.2 | 0.00 | 0.00 | 0.00 | 77 | 1028.1 |
| 20260509171342 | 62 | 342 | 2.6 | 7.0 | 0.00 | 0.00 | 0.00 | 78 | 1028.2 |
| 20260509170844 | 62 | 321 | 2.6 | 7.0 | 0.00 | 0.00 | 0.00 | 77 | 1028.3 |
| 20260509170338 | 62 | 33 | 2.6 | 6.1 | 0.00 | 0.00 | 0.00 | 77 | 1028.3 |
| 20260509165837 | 61 | 17 | 1.7 | 4.3 | 0.00 | 0.00 | 0.00 | 80 | 1028.3 |
| 20260509165337 | 61 | 34 | 2.6 | 5.2 | 0.00 | 0.00 | 0.00 | 80 | 1028.3 |
| 20260509164837 | 60 | 12 | 1.7 | 5.2 | 0.00 | 0.00 | 0.00 | 80 | 1028.4 |
| 20260509164337 | 60 | 5 | 1.7 | 4.3 | 0.00 | 0.00 | 0.00 | 82 | 1028.4 |
| 20260509163837 | 60 | 70 | 2.6 | 5.2 | 0.00 | 0.00 | 0.00 | 81 | 1028.5 |
| 20260509163332 | 59 | 24 | 2.6 | 7.0 | 0.00 | 0.00 | 0.00 | 82 | 1028.7 |
| 20260509162831 | 59 | 290 | 2.6 | 7.0 | 0.00 | 0.00 | 0.00 | 82 | 1028.8 |
| 20260509162331 | 59 | 11 | 1.7 | 5.2 | 0.00 | 0.00 | 0.00 | 83 | 1028.9 |
| 20260509161831 | 59 | 284 | 1.7 | 4.3 | 0.00 | 0.00 | 0.00 | 83 | 1029.1 |
| 20260509161331 | 58 | 5 | 2.6 | 6.1 | 0.00 | 0.00 | 0.00 | 83 | 1029.1 |
| 20260509160832 | 58 | 31 | 2.6 | 6.1 | 0.00 | 0.00 | 0.00 | 83 | 1029.2 |
| 20260509160328 | 58 | 344 | 1.7 | 5.2 | 0.00 | 0.00 | 0.00 | 83 | 1029.1 |
| 20260509155826 | 57 | 259 | 1.7 | 4.3 | 0.00 | 0.00 | 0.00 | 84 | 1029.1 |
| 20260509155325 | 57 | 61 | 2.6 | 6.1 | 0.00 | 0.00 | 0.00 | 84 | 1029.0 |
| 20260509154826 | 56 | 52 | 2.6 | 7.8 | 0.00 | 0.00 | 0.00 | 84 | 1029.0 |
| 20260509154325 | 56 | 0 | 2.6 | 7.8 | 0.00 | 0.00 | 0.00 | 85 | 1029.0 |
| 20260509153826 | 56 | 47 | 2.6 | 7.0 | 0.00 | 0.00 | 0.00 | 86 | 1029.1 |
| 20260509153323 | 55 | 350 | 1.7 | 7.0 | 0.00 | 0.00 | 0.00 | 86 | 1029.2 |
| 20260509152820 | 55 | 58 | 1.7 | 7.8 | 0.00 | 0.00 | 0.00 | 87 | 1029.2 |
| 20260509152322 | 54 | 36 | 1.7 | 7.8 | 0.00 | 0.00 | 0.00 | 88 | 1029.2 |
| 20260509151820 | 54 | 34 | 1.7 | 5.2 | 0.00 | 0.00 | 0.00 | 88 | 1029.4 |
| 20260509151319 | 53 | 331 | 1.7 | 4.3 | 0.00 | 0.00 | 0.00 | 89 | 1029.4 |
| 20260509150819 | 53 | 311 | 1.7 | 4.3 | 0.00 | 0.00 | 0.00 | 89 | 1029.6 |
| 20260509150312 | 53 | 40 | 1.7 | 4.3 | 0.00 | 0.00 | 0.00 | 89 | 1029.5 |
| 20260509145812 | 53 | 51 | 1.7 | 5.2 | 0.00 | 0.00 | 0.00 | 89 | 1029.5 |
| 20260509145313 | 52 | 21 | 1.7 | 5.2 | 0.00 | 0.00 | 0.00 | 90 | 1029.5 |
| 20260509144813 | 52 | 0 | 0.9 | 3.5 | 0.00 | 0.00 | 0.00 | 90 | 1029.7 |
| 20260509144313 | 51 | 77 | 0.9 | 3.5 | 0.00 | 0.00 | 0.00 | 91 | 1029.7 |
| 20260509143813 | 51 | 105 | 0.9 | 2.6 | 0.00 | 0.00 | 0.00 | 91 | 1029.5 |
| 20260509143308 | 51 | 32 | 0.9 | 4.3 | 0.00 | 0.00 | 0.00 | 91 | 1029.5 |
| 20260509142807 | 51 | 355 | 0.9 | 4.3 | 0.00 | 0.00 | 0.00 | 92 | 1029.4 |
| 20260509142307 | 50 | 61 | 0.9 | 3.5 | 0.00 | 0.00 | 0.00 | 92 | 1029.5 |
| 20260509141806 | 50 | 55 | 0.0 | 3.5 | 0.00 | 0.00 | 0.00 | 93 | 1029.4 |
| 20260509141306 | 49 | 323 | 0.0 | 1.7 | 0.00 | 0.00 | 0.00 | 93 | 1029.4 |
| 20260509140807 | 49 | 0 | 0.0 | 1.7 | 0.00 | 0.00 | 0.00 | 93 | 1029.5 |
| 20260509140301 | 49 | 317 | 0.0 | 1.7 | 0.00 | 0.00 | 0.00 | 93 | 1029.6 |
| 20260509135800 | 48 | 317 | 0.0 | 0.9 | 0.00 | 0.00 | 0.00 | 94 | 1029.5 |
| 20260509135257 | 48 | 317 | 0.0 | 0.9 | 0.00 | 0.00 | 0.00 | 94 | 1029.6 |
| 20260509134755 | 47 | 323 | 0.0 | 0.9 | 0.00 | 0.00 | 0.00 | 93 | 1029.4 |
| 20260509134256 | 47 | 323 | 0.0 | 0.0 | 0.00 | 0.00 | 0.00 | 93 | 1029.4 |
| 20260509133752 | 46 | 323 | 0.0 | 0.0 | 0.00 | 0.00 | 0.00 | 93 | 1029.3 |
| 20260509133250 | 45 | 323 | 0.0 | 0.0 | 0.00 | 0.00 | 0.00 | 92 | 1029.4 |
| 20260509132752 | 46 | 323 | 0.0 | 0.0 | 0.00 | 0.00 | 0.00 | 92 | 1029.4 |
| 20260509132250 | 45 | 323 | 0.0 | 0.0 | 0.00 | 0.00 | 0.00 | 92 | 1029.4 |
| 20260509131749 | 45 | 323 | 0.0 | 0.0 | 0.00 | 0.00 | 0.00 | 92 | 1029.4 |
| 20260509131250 | 46 | 323 | 0.0 | 0.0 | 0.00 | 0.00 | 0.00 | 91 | 1029.4 |
| 20260509130744 | 46 | 323 | 0.0 | 0.0 | 0.00 | 0.00 | 0.00 | 91 | 1029.4 |
| 20260509130243 | 46 | 323 | 0.0 | 0.0 | 0.00 | 0.00 | 0.00 | 91 | 1029.4 |
| 20260509125742 | 46 | 323 | 0.0 | 0.0 | 0.00 | 0.00 | 0.00 | 91 | 1029.4 |
| 20260509125240 | 46 | 323 | 0.0 | 0.0 | 0.00 | 0.00 | 0.00 | 91 | 1029.3 |
| 20260509124741 | 47 | 323 | 0.0 | 0.0 | 0.00 | 0.00 | 0.00 | 91 | 1029.5 |
| 20260509124240 | 47 | 323 | 0.0 | 0.0 | 0.00 | 0.00 | 0.00 | 91 | 1029.4 |
| 20260509123740 | 47 | 322 | 0.0 | 0.0 | 0.00 | 0.00 | 0.00 | 91 | 1029.4 |
| 20260509123241 | 47 | 323 | 0.0 | 0.0 | 0.00 | 0.00 | 0.00 | 91 | 1029.3 |
| 20260509122741 | 47 | 323 | 0.0 | 0.9 | 0.00 | 0.00 | 0.00 | 91 | 1029.5 |
| 20260509122242 | 48 | 323 | 0.0 | 0.9 | 0.00 | 0.00 | 0.00 | 91 | 1029.5 |
| 20260509121740 | 48 | 323 | 0.0 | 0.9 | 0.00 | 0.00 | 0.00 | 91 | 1029.5 |
| 20260509121245 | 48 | 323 | 0.0 | 0.0 | 0.00 | 0.00 | 0.00 | 91 | 1029.7 |
| 20260509120742 | 48 | 323 | 0.0 | 0.9 | 0.00 | 0.00 | 0.00 | 91 | 1029.7 |
| 20260509120241 | 48 | 323 | 0.0 | 0.9 | 0.00 | 0.00 | 0.00 | 91 | 1029.5 |
| 20260509115736 | 49 | 323 | 0.0 | 0.0 | 0.00 | 0.00 | 0.00 | 90 | 1029.7 |
| 20260509115238 | 49 | 323 | 0.0 | 0.0 | 0.00 | 0.00 | 0.00 | 90 | 1029.7 |
| 20260509114736 | 49 | 323 | 0.0 | 0.0 | 0.00 | 0.00 | 0.00 | 90 | 1029.4 |
| 20260509114237 | 49 | 323 | 0.0 | 0.9 | 0.00 | 0.00 | 0.00 | 90 | 1029.7 |
| 20260509113738 | 49 | 0 | 0.0 | 0.9 | 0.00 | 0.00 | 0.00 | 90 | 1029.5 |
| 20260509113233 | 50 | 323 | 0.0 | 0.9 | 0.00 | 0.00 | 0.00 | 90 | 1029.5 |
| 20260509112733 | 50 | 323 | 0.0 | 0.9 | 0.00 | 0.00 | 0.00 | 90 | 1029.4 |
| 20260509112232 | 50 | 323 | 0.0 | 0.9 | 0.00 | 0.00 | 0.00 | 91 | 1029.5 |
| 20260509111732 | 50 | 323 | 0.0 | 1.7 | 0.00 | 0.00 | 0.00 | 91 | 1029.5 |
| 20260509111237 | 50 | 322 | 0.0 | 1.7 | 0.00 | 0.00 | 0.00 | 91 | 1029.5 |
| 20260509110732 | 50 | 323 | 0.0 | 2.6 | 0.00 | 0.00 | 0.00 | 91 | 1029.7 |
| 20260509110232 | 50 | 323 | 0.0 | 2.6 | 0.00 | 0.00 | 0.00 | 91 | 1029.7 |
| 20260509105732 | 50 | 323 | 0.0 | 2.6 | 0.00 | 0.00 | 0.00 | 91 | 1029.8 |
| 20260509105233 | 50 | 323 | 0.9 | 2.6 | 0.00 | 0.00 | 0.00 | 91 | 1030.0 |
| 20260509104729 | 50 | 323 | 0.9 | 2.6 | 0.00 | 0.00 | 0.00 | 91 | 1030.0 |
| 20260509104229 | 50 | 319 | 0.0 | 1.7 | 0.00 | 0.00 | 0.00 | 91 | 1030.0 |
| 20260509103729 | 50 | 319 | 0.9 | 2.6 | 0.00 | 0.00 | 0.00 | 91 | 1030.0 |
| 20260509103228 | 50 | 319 | 0.9 | 2.6 | 0.00 | 0.00 | 0.00 | 91 | 1030.1 |
| 20260509102726 | 50 | 0 | 0.0 | 1.7 | 0.00 | 0.00 | 0.00 | 91 | 1030.0 |
| 20260509102226 | 50 | 339 | 0.0 | 1.7 | 0.00 | 0.00 | 0.00 | 91 | 1030.0 |
| 20260509101723 | 50 | 340 | 0.0 | 1.7 | 0.00 | 0.00 | 0.00 | 90 | 1030.0 |
| 20260509101222 | 50 | 339 | 0.0 | 0.0 | 0.00 | 0.00 | 0.00 | 91 | 1029.9 |
| 20260509100720 | 50 | 0 | 0.0 | 0.0 | 0.00 | 0.00 | 0.00 | 90 | 1030.0 |
| 20260509100221 | 50 | 340 | 0.0 | 0.0 | 0.00 | 0.00 | 0.00 | 90 | 1030.0 |
| 20260509095720 | 51 | 339 | 0.0 | 0.0 | 0.00 | 0.00 | 0.00 | 90 | 1029.9 |
| 20260509095219 | 51 | 340 | 0.0 | 0.0 | 0.00 | 0.00 | 0.00 | 90 | 1030.1 |
| 20260509094718 | 51 | 0 | 0.0 | 0.0 | 0.00 | 0.00 | 0.00 | 90 | 1030.1 |
| 20260509094216 | 51 | 339 | 0.0 | 0.0 | 0.00 | 0.00 | 0.00 | 90 | 1030.0 |
| 20260509093714 | 51 | 339 | 0.0 | 0.9 | 0.00 | 0.00 | 0.00 | 90 | 1030.1 |
| 20260509093214 | 51 | 340 | 0.0 | 0.9 | 0.00 | 0.00 | 0.00 | 89 | 1030.1 |
| 20260509092714 | 52 | 340 | 0.0 | 1.7 | 0.00 | 0.00 | 0.00 | 89 | 1030.1 |
| 20260509092214 | 52 | 340 | 0.0 | 1.7 | 0.00 | 0.00 | 0.00 | 89 | 1030.3 |
| 20260509091712 | 52 | 340 | 0.0 | 1.7 | 0.00 | 0.00 | 0.00 | 89 | 1030.2 |
| 20260509091211 | 52 | 338 | 0.9 | 2.6 | 0.00 | 0.00 | 0.00 | 89 | 1030.2 |
| 20260509090711 | 52 | 341 | 0.9 | 2.6 | 0.00 | 0.00 | 0.00 | 89 | 1030.3 |
| 20260509090211 | 52 | 300 | 0.0 | 1.7 | 0.00 | 0.00 | 0.00 | 89 | 1030.3 |
| 20260509085708 | 52 | 300 | 0.0 | 1.7 | 0.00 | 0.00 | 0.00 | 89 | 1030.3 |
| 20260509085208 | 53 | 300 | 0.0 | 1.7 | 0.00 | 0.00 | 0.00 | 89 | 1030.4 |
| 20260509084703 | 53 | 300 | 0.9 | 2.6 | 0.00 | 0.00 | 0.00 | 89 | 1030.5 |
| 20260509084202 | 53 | 299 | 0.9 | 2.6 | 0.00 | 0.00 | 0.00 | 89 | 1030.4 |
| 20260509083702 | 53 | 298 | 0.0 | 1.7 | 0.00 | 0.00 | 0.00 | 89 | 1030.6 |
| 20260509083202 | 53 | 298 | 0.0 | 1.7 | 0.00 | 0.00 | 0.00 | 89 | 1030.6 |
| 20260509082702 | 53 | 299 | 0.9 | 1.7 | 0.00 | 0.00 | 0.00 | 88 | 1030.7 |